• In Belarus
  • List of Countries
  • For 7 days
  • Water Temperature
  • Weather Map
  • Weather Widgets
  • user-avatar
    Login

    Hourly Weather Aschibulak

    Today, 21 September, Saturday

    Time Temperature Precipitation Wind Pressure Humidity
    00:00 +19°C° 0 mm 3 mps 673 mmHg 35%
    01:00 +18°C° 0 mm 3 mps 673 mmHg 35%
    02:00 +18°C° 0 mm 2 mps 673 mmHg 35%
    03:00 +18°C° 0 mm 2 mps 673 mmHg 35%
    04:00 +18°C° 0 mm 2 mps 673 mmHg 34%
    05:00 +17°C° 0 mm 2 mps 673 mmHg 34%
    06:00 +20°C° 0 mm 2 mps 673 mmHg 31%
    07:00 +23°C° 0 mm 1 mps 674 mmHg 29%
    08:00 +25°C° 0 mm 1 mps 675 mmHg 26%
    09:00 +26°C° 0 mm 1 mps 675 mmHg 24%
    10:00 +27°C° 0 mm 2 mps 675 mmHg 22%
    11:00 +28°C° 0 mm 3 mps 675 mmHg 20%
    12:00 +28°C° 0 mm 3 mps 674 mmHg 21%
    13:00 +28°C° 0 mm 3 mps 674 mmHg 21%
    14:00 +29°C° 0 mm 3 mps 673 mmHg 21%
    15:00 +28°C° 0 mm 3 mps 673 mmHg 24%
    16:00 +26°C° 0 mm 3 mps 673 mmHg 27%
    17:00 +25°C° 0 mm 2 mps 673 mmHg 30%
    18:00 +24°C° 0 mm 2 mps 672 mmHg 32%
    19:00 +21°C° 0 mm 2 mps 672 mmHg 34%
    20:00 +19°C° 0 mm 2 mps 672 mmHg 37%
    21:00 +19°C° 0 mm 2 mps 672 mmHg 36%
    22:00 +19°C° 0 mm 2 mps 671 mmHg 35%
    23:00 +18°C° 0 mm 2 mps 671 mmHg 35%

    Tomorrow, 22 September, Sunday

    Time Temperature Precipitation Wind Pressure Humidity
    00:00 +18°C° 0 mm 2 mps 671 mmHg 35%
    01:00 +18°C° 0 mm 3 mps 670 mmHg 34%
    02:00 +18°C° 0 mm 3 mps 670 mmHg 34%
    03:00 +18°C° 0 mm 3 mps 670 mmHg 33%
    04:00 +18°C° 0 mm 3 mps 670 mmHg 31%
    05:00 +18°C° 0 mm 3 mps 670 mmHg 29%
    06:00 +20°C° 0 mm 2 mps 671 mmHg 27%
    07:00 +23°C° 0 mm 2 mps 671 mmHg 25%
    08:00 +26°C° 0 mm 2 mps 672 mmHg 22%
    09:00 +27°C° 0 mm 2 mps 672 mmHg 20%
    10:00 +29°C° 0 mm 2 mps 672 mmHg 17%
    11:00 +30°C° 0 mm 2 mps 672 mmHg 14%
    12:00 +31°C° 0 mm 2 mps 672 mmHg 14%
    13:00 +31°C° 0 mm 2 mps 671 mmHg 14%
    14:00 +31°C° 0 mm 2 mps 671 mmHg 13%
    15:00 +30°C° 0 mm 2 mps 671 mmHg 16%
    16:00 +29°C° 0 mm 2 mps 670 mmHg 19%
    17:00 +27°C° 0 mm 1 mps 670 mmHg 22%
    18:00 +26°C° 0 mm 2 mps 670 mmHg 23%
    19:00 +24°C° 0 mm 2 mps 670 mmHg 24%
    20:00 +21°C° 0 mm 3 mps 669 mmHg 24%
    21:00 +21°C° 0 mm 3 mps 669 mmHg 24%
    22:00 +21°C° 0 mm 3 mps 669 mmHg 24%
    23:00 +21°C° 0 mm 4 mps 669 mmHg 24%

    Day after tomorrow, 23 September, Monday

    Time Temperature Precipitation Wind Pressure Humidity
    00:00 +21°C° 0 mm 4 mps 669 mmHg 21%
    01:00 +21°C° 0 mm 4 mps 669 mmHg 19%
    02:00 +21°C° 0 mm 4 mps 669 mmHg 16%
    03:00 +21°C° 0 mm 4 mps 670 mmHg 15%
    04:00 +21°C° 0 mm 4 mps 670 mmHg 13%
    05:00 +21°C° 0 mm 4 mps 670 mmHg 12%
    06:00 +25°C° 0 mm 4 mps 671 mmHg 13%
    07:00 +27°C° 0 mm 4 mps 673 mmHg 15%
    08:00 +30°C° 0 mm 5 mps 674 mmHg 16%
    09:00 +29°C° 0 mm 6 mps 675 mmHg 20%
    10:00 +27°C° 0 mm 8 mps 675 mmHg 23%
    11:00 +26°C° 0 mm 9 mps 676 mmHg 27%
    12:00 +24°C° 0 mm 8 mps 676 mmHg 32%
    13:00 +24°C° 0 mm 6 mps 676 mmHg 38%
    14:00 +23°C° 0 mm 5 mps 676 mmHg 44%
    15:00 +22°C° 0 mm 4 mps 676 mmHg 46%
    16:00 +21°C° 0 mm 3 mps 676 mmHg 48%
    17:00 +20°C° 0 mm 3 mps 676 mmHg 50%
    18:00 +19°C° 0 mm 2 mps 675 mmHg 51%
    19:00 +18°C° 0 mm 2 mps 675 mmHg 52%
    20:00 +16°C° 0 mm 1 mps 675 mmHg 53%
    21:00 +16°C° 0 mm 1 mps 675 mmHg 52%
    22:00 +16°C° 0 mm 1 mps 674 mmHg 51%
    23:00 +15°C° 0 mm 1 mps 674 mmHg 50%

    24 September, Tuesday

    Time Temperature Precipitation Wind Pressure Humidity
    00:00 +15°C° 0 mm 1 mps 674 mmHg 50%
    01:00 +15°C° 0 mm 1 mps 673 mmHg 49%
    02:00 +14°C° 0 mm 1 mps 673 mmHg 49%
    03:00 +14°C° 0 mm 1 mps 673 mmHg 49%
    04:00 +14°C° 0 mm 1 mps 673 mmHg 49%
    05:00 +14°C° 0 mm 1 mps 673 mmHg 49%
    06:00 +16°C° 0 mm 1 mps 673 mmHg 45%
    07:00 +19°C° 0 mm 1 mps 673 mmHg 41%
    08:00 +21°C° 0 mm 1 mps 674 mmHg 37%
    09:00 +21°C° 0 mm 2 mps 674 mmHg 35%
    10:00 +23°C° 0 mm 2 mps 674 mmHg 33%
    11:00 +24°C° 0 mm 3 mps 674 mmHg 31%
    12:00 +24°C° 0 mm 3 mps 674 mmHg 31%
    13:00 +25°C° 0 mm 3 mps 674 mmHg 31%
    14:00 +25°C° 0 mm 3 mps 674 mmHg 31%
    15:00 +24°C° 0 mm 2 mps 674 mmHg 32%
    16:00 +23°C° 0 mm 2 mps 674 mmHg 33%
    17:00 +22°C° 0 mm 1 mps 674 mmHg 35%
    18:00 +19°C° 0 mm 2 mps 674 mmHg 36%
    19:00 +18°C° 0 mm 2 mps 674 mmHg 37%
    20:00 +17°C° 0 mm 2 mps 674 mmHg 38%
    21:00 +17°C° 0 mm 2 mps 674 mmHg 40%
    22:00 +17°C° 0 mm 2 mps 674 mmHg 42%
    23:00 +18°C° 0 mm 1 mps 674 mmHg 43%

    25 September, Wednesday

    Time Temperature Precipitation Wind Pressure Humidity
    00:00 +16°C° 0 mm 1 mps 674 mmHg 45%
    01:00 +15°C° 0 mm 1 mps 673 mmHg 47%
    02:00 +14°C° 0 mm 1 mps 673 mmHg 49%
    03:00 +15°C° 0 mm 1 mps 673 mmHg 50%
    04:00 +15°C° 0 mm 1 mps 674 mmHg 50%
    05:00 +15°C° 0 mm 1 mps 674 mmHg 50%
    06:00 +16°C° 0.1 mm 1 mps 674 mmHg 49%
    07:00 +19°C° 0.1 mm 1 mps 675 mmHg 47%
    08:00 +20°C° 0.1 mm 1 mps 676 mmHg 46%
    09:00 +20°C° 0.1 mm 2 mps 676 mmHg 42%
    10:00 +20°C° 0.1 mm 2 mps 676 mmHg 39%
    11:00 +21°C° 0.1 mm 3 mps 676 mmHg 35%
    12:00 +22°C° 0 mm 3 mps 676 mmHg 33%
    13:00 +22°C° 0 mm 3 mps 676 mmHg 31%
    14:00 +22°C° 0 mm 3 mps 676 mmHg 29%
    15:00 +21°C° 0 mm 3 mps 676 mmHg 32%
    16:00 +20°C° 0 mm 3 mps 676 mmHg 34%
    17:00 +19°C° 0 mm 2 mps 675 mmHg 37%
    18:00 +17°C° 0 mm 2 mps 675 mmHg 41%
    19:00 +15°C° 0 mm 1 mps 675 mmHg 46%
    20:00 +14°C° 0 mm 1 mps 675 mmHg 51%
    21:00 +13°C° 0 mm 1 mps 675 mmHg 54%
    22:00 +13°C° 0 mm 1 mps 674 mmHg 56%
    23:00 +12°C° 0 mm 1 mps 674 mmHg 59%

    26 September, Thursday

    Time Temperature Precipitation Wind Pressure Humidity
    00:00 +12°C° 0 mm 1 mps 674 mmHg 58%
    01:00 +12°C° 0 mm 1 mps 674 mmHg 58%
    02:00 +12°C° 0 mm 1 mps 674 mmHg 58%
    03:00 +12°C° 0 mm 1 mps 674 mmHg 57%
    04:00 +11°C° 0 mm 1 mps 674 mmHg 57%
    05:00 +11°C° 0 mm 1 mps 674 mmHg 56%
    06:00 +13°C° 0 mm 1 mps 674 mmHg 51%
    07:00 +15°C° 0 mm 1 mps 675 mmHg 46%
    08:00 +16°C° 0 mm 1 mps 675 mmHg 41%
    09:00 +17°C° 0 mm 2 mps 676 mmHg 38%
    10:00 +19°C° 0 mm 2 mps 676 mmHg 35%
    11:00 +20°C° 0 mm 3 mps 676 mmHg 32%
    12:00 +20°C° 0 mm 3 mps 676 mmHg 31%
    13:00 +20°C° 0 mm 3 mps 675 mmHg 31%
    14:00 +20°C° 0 mm 3 mps 675 mmHg 30%
    15:00 +19°C° 0 mm 3 mps 675 mmHg 30%
    16:00 +18°C° 0 mm 3 mps 674 mmHg 30%
    17:00 +17°C° 0 mm 2 mps 674 mmHg 30%
    18:00 +16°C° 0 mm 2 mps 674 mmHg 30%
    19:00 +15°C° 0 mm 2 mps 674 mmHg 31%
    20:00 +14°C° 0 mm 1 mps 674 mmHg 32%
    21:00 +14°C° 0 mm 1 mps 673 mmHg 32%
    22:00 +13°C° 0 mm 2 mps 673 mmHg 32%
    23:00 +13°C° 0 mm 2 mps 672 mmHg 33%
    Show more